{"data":{"norad_id":65016,"intl_designator":"2025-161B","name":"STARLINK-34627","alt_names":[],"object_type":"PAYLOAD","status":"ACTIVE","operator":null,"country":"US","launch_date":"2025-07-30","launch_site_code":"AFWTR","launch_vehicle":null,"mission":null,"orbit_class":"UNKNOWN","rcs_meters":null,"size_class":null,"mass_kg":null,"dimensions":null,"purposes":["comms"],"wikipedia_slug":null,"has_3d_model":false,"image_url":null,"decayed_at":null,"tle_current":{"epoch":"2026-09-20T02:59:17.727072Z","epoch_age_seconds":156665,"freshness":"FRESH","line1":"1 65016U 25161B   26263.12451073  .00016650  00000+0  50278-3 0  9997","line2":"2 65016  53.1574 109.3052 0001204  87.6483 272.4658 15.34402604 65237","mean_motion":15.34402604,"eccentricity":0.0001204,"inclination_deg":53.1574,"raan_deg":109.3052,"arg_perigee_deg":87.6483,"mean_anomaly_deg":272.4658,"bstar":0.00050278,"rev_number":6523,"period_min":93.847598814424,"perigee_km":461.87186434821,"apogee_km":463.51913681435,"semimajor_km":6840.8325005813,"source":"CELESTRAK","updated_at":"2026-09-21T09:00:35.491490Z"}}}